Wind_Speed
18 18 18 18 18 19 19 19 19 19 19 19 20 20 21 21 21 22 21 22 23 23 24 25 25 26 27 27 28 28 29 29 30 30 31 31 32 32
21 20 21 21 20 21 21 21 21 22 22 23 23 23 23 24 24 24 24 25 26 27 28 28 29 30 30 31 31 32 32 33 33 34 35 35 36 36
22 22 22 22 22 22 22 23 23 23 24 25 25 25 26 27 28 28 28 28 30 31 31 32 32 33 33 34 35 35 36 36 37 38 39 39 40 40
22 23 23 23 23 23 23 24 25 25 25 25 26 27 28 29 30 31 31 31 32 33 34 35 35 36 37 37 38 38 39 40 40 41 42 43 43 44
22 23 24 25 25 25 25 25 25 26 26 28 29 29 30 31 32 32 33 34 35 35 36 37 38 39 40 40 41 42 43 44 44 45 45 46 46 47
22 22 24 24 25 25 26 26 27 28 29 30 31 31 32 33 34 34 36 37 37 37 38 40 41 42 43 44 45 46 46 47 47 48 48 49 49 49
22 23 24 24 25 25 27 28 29 30 31 31 32 33 34 35 35 36 38 39 40 40 41 42 43 44 45 46 47 48 49 49 50 51 51 52 52 53
24 25 25 26 27 27 28 29 31 32 33 34 34 35 35 36 37 38 39 40 42 43 44 45 46 47 48 48 49 50 51 52 53 54 55 56 56 56
25 26 26 27 28 29 29 30 32 33 34 36 36 37 37 38 39 40 41 43 45 46 46 47 49 50 51 52 53 53 54 55 56 57 57 58 58 59
26 26 27 28 28 29 30 31 32 34 36 37 38 39 40 40 42 43 44 46 47 48 48 48 49 51 52 54 55 56 56 57 58 59 59 60 60 60
28 28 29 30 30 30 32 33 34 36 36 38 39 41 42 43 44 45 46 46 47 48 49 50 51 52 54 56 57 57 58 59 59 59 60 60 60 60
29 30 31 31 31 32 33 35 36 37 38 40 41 42 44 44 45 45 46 47 49 50 51 52 53 54 54 55 56 57 58 58 58 59 59 59 60 59
28 29 30 31 32 33 35 37 38 39 40 41 42 42 43 44 45 46 47 49 50 51 52 53 54 55 55 55 56 57 58 58 59 59 59 59 58 58
28 29 31 32 33 35 36 38 40 40 41 42 43 44 45 45 46 47 48 50 51 52 52 53 54 55 55 55 56 56 57 57 58 58 57 57 56 55
29 29 31 33 35 36 38 39 41 41 42 43 43 44 45 46 48 49 50 51 51 52 53 53 54 55 55 56 55 55 55 56 56 55 55 54 53 53
30 32 33 35 37 38 39 40 40 41 41 42 43 44 45 46 47 49 50 50 51 52 53 53 54 54 54 54 54 54 53 53 52 52 51 50 49 49
33 35 36 37 37 38 39 40 40 40 41 42 43 44 45 46 47 48 48 49 50 51 51 51 51 50 51 51 51 50 49 49 48 47 47 45 45 44
35 36 36 36 37 38 38 38 39 40 40 41 43 43 44 45 46 47 48 48 49 49 48 48 47 47 47 47 47 46 45 45 44 43 42 41 40 39
35 35 36 37 37 37 37 37 38 39 40 41 43 43 44 45 45 46 46 45 45 45 44 44 44 44 43 43 43 43 42 40 39 38 38 37 36 35
34 34 34 34 35 35 36 37 38 39 40 41 42 42 43 43 43 43 42 42 41 41 41 41 41 41 40 40 39 39 39 38 36 35 34 33 33 32
31 32 32 33 34 36 36 37 37 38 39 40 40 40 40 40 40 40 39 39 38 38 38 38 39 39 38 38 37 37 36 35 34 33 31 30 29 29
31 31 32 33 34 34 35 35 36 37 37 37 37 37 37 37 36 36 36 36 35 36 36 37 37 36 36 35 35 34 33 32 32 31 30 29 28 26
31 31 32 32 32 32 33 34 34 34 34 34 34 33 33 33 33 33 33 33 33 34 34 34 34 34 33 33 33 32 30 29 29 28 27 26 26 25
Wind_Direction
252 255 259 261 263 264 266 270 273 275 277 278 279 282 284 284 282 283 283 284 284 284 285 286 286 287 287 286 286 286 285 285 285 285 284 284 284 284
254 257 260 261 264 266 269 272 274 276 278 279 280 281 282 283 283 284 285 285 285 285 287 287 287 287 287 287 286 285 285 285 285 285 285 284 284 283
255 258 259 261 264 268 270 271 274 276 278 280 282 282 282 283 284 285 286 286 285 286 286 287 287 287 287 287 287 286 286 286 285 285 284 284 283 283
257 258 260 262 264 267 270 272 274 277 278 281 283 284 285 285 285 286 286 286 286 285 286 287 287 288 288 288 287 286 286 285 285 284 284 284 283 283
259 261 263 264 266 269 271 273 275 278 279 282 284 284 285 286 286 287 288 289 288 286 286 286 287 288 288 288 287 286 285 285 284 284 284 284 283 283
263 265 266 268 269 270 272 274 277 278 280 282 284 285 285 286 287 288 289 290 290 289 288 288 288 287 287 287 287 286 286 285 285 285 285 284 284 283
263 265 267 269 270 272 273 275 277 278 280 283 284 285 286 287 288 289 290 290 290 289 289 288 288 288 288 287 287 286 286 286 285 285 285 285 284 283
266 267 269 270 272 273 275 276 278 279 281 283 284 286 287 288 290 290 290 290 289 289 289 289 290 289 289 288 288 288 287 287 286 286 285 285 284 283
270 271 272 274 277 278 280 280 280 281 283 284 284 285 286 289 290 290 290 290 291 290 290 290 290 290 290 290 290 289 289 288 288 287 286 286 285 284
273 274 275 278 280 280 281 283 284 284 284 285 285 287 288 290 291 291 291 291 292 292 291 291 291 291 291 291 291 291 290 289 289 288 287 286 285 284
274 275 276 278 279 280 282 284 286 286 287 288 289 290 290 291 291 292 292 292 292 292 292 291 292 292 292 292 292 291 291 290 290 289 288 287 286 285
278 277 277 278 280 281 283 285 287 288 289 290 291 291 292 292 293 292 292 292 293 293 293 293 293 293 293 293 293 292 292 291 291 290 289 288 287 286
281 279 280 281 282 285 287 288 289 290 291 292 292 292 292 292 292 293 293 293 294 294 295 295 295 295 295 294 294 293 293 292 292 291 291 290 288 287
282 283 283 284 286 288 288 289 290 291 292 293 293 292 293 293 293 294 294 295 295 296 296 296 296 296 296 295 295 294 294 294 293 292 291 291 289 288
284 285 286 287 288 289 291 293 292 292 292 293 294 294 294 294 294 295 295 295 296 297 297 296 296 296 296 296 296 295 295 294 293 292 291 290 290 289
285 287 288 288 289 291 293 293 294 294 296 296 296 296 296 296 296 296 297 297 298 298 298 298 298 298 297 297 297 297 296 295 294 293 292 291 291 290
288 289 290 291 292 293 294 294 295 297 298 299 298 297 297 297 298 299 300 300 300 300 300 300 300 301 301 301 300 300 299 298 297 295 294 293 293 292
289 290 292 293 294 296 297 298 298 298 299 299 299 300 300 301 302 302 302 302 303 303 303 302 302 303 304 304 304 304 302 301 300 299 298 297 295 293
292 293 294 296 297 298 299 300 300 300 301 302 302 303 303 304 304 305 305 305 306 306 307 307 307 307 307 307 307 307 306 304 303 302 301 299 297 296
294 295 296 298 299 300 300 301 302 303 304 304 304 305 306 307 307 308 308 308 309 310 310 311 311 312 311 311 311 310 309 308 306 305 304 302 301 299
297 298 299 300 300 301 302 303 304 305 305 306 307 308 309 309 310 311 312 312 313 314 315 315 316 315 315 314 314 314 312 312 311 309 307 305 304 301
298 298 299 301 303 304 305 306 307 307 308 309 310 311 312 313 314 315 316 317 317 318 319 320 320 320 319 318 318 318 317 316 315 313 311 309 308 305
298 300 302 305 306 307 308 309 310 311 312 313 314 315 317 318 319 320 321 321 322 323 324 325 325 325 324 324 324 323 321 320 319 317 315 313 312 310
Height
5879 5880 5881 5881 5882 5882 5883 5883 5883 5883 5883 5883 5883 5882 5881 5880 5880 5879 5879 5877 5876 5875 5874 5873 5872 5871 5870 5868 5867 5866 5865 5863 5862 5861 5859 5858 5857 5856
5874 5875 5876 5877 5877 5878 5878 5878 5878 5878 5878 5878 5877 5877 5876 5875 5874 5873 5873 5872 5871 5869 5868 5867 5865 5864 5862 5861 5859 5858 5856 5855 5853 5852 5850 5849 5848 5846
5869 5870 5871 5872 5873 5873 5873 5873 5873 5873 5873 5872 5871 5871 5870 5869 5868 5867 5866 5865 5864 5862 5861 5859 5857 5856 5854 5852 5850 5849 5847 5845 5843 5842 5840 5838 5837 5835
5864 5865 5866 5866 5867 5868 5868 5868 5868 5867 5867 5866 5865 5864 5863 5862 5860 5859 5858 5857 5856 5854 5853 5851 5848 5847 5845 5843 5841 5839 5837 5834 5832 5830 5828 5827 5825 5823
5859 5860 5861 5861 5862 5862 5862 5862 5861 5861 5861 5860 5859 5858 5857 5855 5853 5851 5849 5848 5846 5845 5844 5841 5839 5837 5834 5832 5830 5827 5825 5823 5820 5818 5816 5814 5812 5810
5854 5854 5855 5855 5856 5856 5856 5856 5855 5855 5854 5853 5852 5850 5849 5847 5845 5842 5841 5838 5836 5835 5833 5830 5828 5826 5824 5821 5818 5815 5812 5809 5807 5805 5802 5800 5797 5795
5848 5849 5849 5849 5849 5849 5849 5849 5848 5847 5846 5845 5844 5842 5840 5838 5836 5834 5832 5829 5826 5824 5822 5819 5816 5814 5811 5808 5805 5802 5798 5795 5793 5790 5787 5784 5781 5779
5843 5843 5843 5843 5843 5842 5842 5841 5840 5839 5838 5837 5835 5833 5831 5829 5826 5824 5821 5818 5816 5813 5810 5806 5803 5800 5797 5794 5791 5787 5784 5780 5777 5774 5771 5768 5765 5762
5837 5837 5836 5836 5836 5835 5834 5833 5832 5831 5830 5828 5826 5824 5821 5819 5816 5813 5810 5806 5803 5800 5797 5794 5789 5786 5782 5778 5775 5772 5768 5764 5760 5756 5753 5749 5746 5743
5830 5830 5829 5829 5829 5827 5826 5825 5824 5822 5820 5818 5816 5814 5811 5808 5805 5802 5798 5795 5790 5787 5784 5780 5776 5772 5767 5762 5758 5754 5750 5746 5742 5738 5733 5730 5726 5723
5823 5823 5822 5821 5821 5819 5818 5817 5815 5813 5810 5808 5805 5802 5799 5796 5793 5789 5786 5782 5778 5774 5770 5766 5762 5758 5752 5747 5742 5737 5732 5727 5723 5718 5714 5710 5706 5702
5816 5815 5814 5813 5812 5811 5809 5807 5805 5803 5800 5797 5794 5791 5787 5784 5780 5776 5772 5768 5764 5760 5756 5751 5746 5742 5737 5731 5725 5719 5714 5709 5705 5700 5695 5690 5686 5682
5807 5806 5806 5804 5803 5801 5800 5798 5795 5793 5789 5786 5783 5779 5776 5772 5768 5763 5759 5755 5750 5746 5741 5736 5730 5724 5719 5715 5709 5702 5697 5692 5686 5681 5676 5671 5666 5662
5800 5799 5798 5796 5794 5792 5790 5787 5784 5781 5778 5775 5771 5767 5763 5759 5755 5750 5746 5741 5736 5730 5725 5719 5714 5708 5703 5698 5693 5686 5680 5673 5668 5663 5657 5652 5647 5643
5793 5791 5790 5788 5786 5783 5780 5777 5774 5770 5767 5763 5759 5755 5751 5747 5742 5737 5732 5727 5721 5715 5709 5704 5698 5692 5686 5681 5675 5669 5663 5656 5650 5645 5640 5634 5629 5625
5785 5783 5781 5779 5776 5773 5770 5766 5762 5759 5755 5751 5747 5743 5738 5734 5729 5723 5718 5712 5707 5701 5694 5688 5682 5676 5670 5664 5657 5652 5645 5640 5634 5628 5623 5618 5613 5609
5776 5774 5771 5769 5766 5762 5759 5755 5751 5747 5743 5739 5735 5730 5725 5720 5715 5710 5704 5698 5692 5686 5680 5673 5667 5660 5653 5647 5642 5635 5630 5624 5618 5613 5608 5603 5598 5594
5767 5764 5762 5758 5755 5752 5748 5744 5741 5736 5732 5727 5723 5718 5713 5707 5702 5696 5690 5684 5678 5671 5665 5659 5653 5647 5641 5633 5627 5621 5615 5610 5604 5599 5594 5590 5586 5582
5757 5755 5752 5748 5745 5741 5737 5733 5729 5725 5721 5716 5711 5706 5700 5695 5689 5683 5677 5671 5665 5658 5652 5646 5640 5634 5628 5623 5615 5608 5603 5597 5592 5587 5582 5578 5574 5571
5748 5745 5742 5738 5735 5731 5727 5723 5719 5714 5710 5705 5699 5694 5688 5683 5677 5671 5665 5659 5653 5647 5641 5635 5629 5622 5616 5611 5605 5598 5591 5586 5581 5577 5572 5568 5564 5561
5739 5736 5732 5729 5725 5721 5717 5713 5708 5704 5699 5694 5688 5683 5677 5672 5666 5660 5655 5649 5643 5638 5632 5625 5619 5612 5606 5600 5595 5589 5582 5576 5571 5567 5563 5559 5556 5552
5730 5727 5723 5720 5716 5712 5707 5703 5698 5694 5689 5684 5679 5673 5668 5662 5657 5652 5646 5640 5635 5629 5623 5617 5610 5604 5598 5592 5586 5580 5574 5569 5564 5559 5554 5551 5547 5544
5722 5718 5715 5711 5707 5702 5698 5694 5689 5685 5680 5675 5670 5665 5659 5654 5649 5644 5638 5633 5627 5622 5616 5609 5603 5597 5590 5584 5578 5572 5567 5562 5557 5553 5548 5544 5540 5537